Starlink 31771

operational
NORAD ID: 59620 Int'l Des: 2024-080 Owner: SPXS Country: US Constellation: starlink
LEOCIRCULAR

About Starlink 31771

Description loading...

Live Position

Loading 3D Globe...

Upcoming Passes

Altitude History

Altitude vs Time

uPlot chart will show altitude changes over time

Two-Line Element Set

1 59620U 24080V 25352.70545719 .00684367 22440-3 11073-2 0 9994
2 59620 42.9758 107.3417 0022714 355.2915 4.7747 16.02078150 92468
Epoch: Dec 18, 2025 • Age: 13 hours

Current Status

Altitude 257.7 km
Velocity 7.76 km/s
Sub-Earth Point -19.31°S, 100.35°W
Launch Date Apr 28, 2024
Age 1.6 years
Type internet

Technical Details

Classification Payload
Mass 730.00 kg
Dry Mass 700.00 kg
Total Mass 730.00 kg
Length 0.30 m
Diameter 4.10 m
Span 29.00 m
Shape Box + pan
Manufacturer SPXS
Bus Type Starlink V2M
Phase Status In Orbit
Owner/State SPXS/US

Large Constellations

Loading constellations...